This is the latest recevied weather packets stored in our database for station/object N0KTA-2. If no packets are shown the sender has not sent any weather packets the latest 10 day(s).
| Time | Temp. | Humidity | Pressure | Rain* | Wind** | Luminosity | Snow |
|---|---|---|---|---|---|---|---|
| 1777844965 | 30° C | 21% | 1004.8 hPa | 0 mm | - | - | - |
| 1777844364 | 30° C | 20% | 1005 hPa | 0 mm | - | - | - |
| 1777843766 | 30° C | 21% | 1005.2 hPa | 0 mm | - | - | - |
| 1777843164 | 30° C | 22% | 1005.3 hPa | 0 mm | - | - | - |
| 1777842565 | 30° C | 22% | 1005.4 hPa | 0 mm | - | - | - |
| 1777841964 | 30° C | 22% | 1005.7 hPa | 0 mm | - | - | - |
| 1777841365 | 29.44° C | 21% | 1005.8 hPa | 0 mm | - | - | - |
| 1777840764 | 29.44° C | 20% | 1006.2 hPa | 0 mm | - | - | - |
| 1777840165 | 29.44° C | 22% | 1006.4 hPa | 0 mm | - | - | - |
| 1777839565 | 29.44° C | 21% | 1006.5 hPa | 0 mm | - | - | - |
| 1777838965 | 29.44° C | 24% | 1006.7 hPa | 0 mm | - | - | - |
| 1777838365 | 29.44° C | 21% | 1006.9 hPa | 0 mm | - | - | - |
| 1777837764 | 29.44° C | 21% | 1006.9 hPa | 0 mm | - | - | - |
| 1777837166 | 29.44° C | 23% | 1007 hPa | 0 mm | - | - | - |
| 1777836565 | 29.44° C | 23% | 1007.3 hPa | 0 mm | - | - | - |
| 1777835965 | 28.89° C | 25% | 1007.4 hPa | 0 mm | - | - | - |
| 1777835364 | 28.33° C | 21% | 1007.6 hPa | 0 mm | - | - | - |
| 1777834765 | 28.33° C | 24% | 1007.9 hPa | 0 mm | - | - | - |
| 1777834164 | 28.33° C | 26% | 1008 hPa | 0 mm | - | - | - |
| 1777833565 | 28.33° C | 24% | 1008 hPa | 0 mm | - | - | - |
| 1777832964 | 27.78° C | 26% | 1008.3 hPa | 0 mm | - | - | - |
| 1777832365 | 27.78° C | 31% | 1008.5 hPa | 0 mm | - | - | - |
| 1777831764 | 27.22° C | 31% | 1008.8 hPa | 0 mm | - | - | - |
| 1777831165 | 27.22° C | 31% | 1009.2 hPa | 0 mm | - | - | - |
| 1777830566 | 26.11° C | 34% | 1009.3 hPa | 0 mm | - | - | - |
* Rain latest hour (hover to see other rain measurements)
** Current wind speed in m/s (hover to see current wind gust speed)